This is the latest recevied weather packets stored in our database for station/object HOWARD. If no packets are shown the sender has not sent any weather packets the latest 10 day(s).
| Time | Temp. | Humidity | Pressure | Rain* | Wind** | Luminosity | Snow |
|---|---|---|---|---|---|---|---|
| 1777475499 | 0° C | 74% | 1014.5 hPa | 0 mm | - | - | - |
| 1777474899 | 0° C | 74% | 1014.5 hPa | 0 mm | - | - | - |
| 1777474299 | 0° C | 72% | 1014.5 hPa | 0 mm | - | - | - |
| 1777473699 | -0.56° C | 72% | 1014.4 hPa | 0 mm | - | - | - |
| 1777473100 | -0.56° C | 72% | 1014.3 hPa | 0 mm | - | - | - |
| 1777472499 | -0.56° C | 70% | 1014.3 hPa | 0 mm | - | - | - |
| 1777471900 | -0.56° C | 69% | 1014.2 hPa | 0 mm | - | - | - |
| 1777471299 | -0.56° C | 64% | 1014.2 hPa | 0 mm | - | - | - |
| 1777470699 | -0.56° C | 62% | 1014.1 hPa | 0 mm | - | - | - |
| 1777470139 | -0.56° C | 63% | 1014 hPa | 0 mm | - | - | - |
| 1777470100 | -0.56° C | 63% | 1014 hPa | 0 mm | - | - | - |
| 1777469499 | -0.56° C | 63% | 1014 hPa | 0 mm | - | - | - |
| 1777468899 | -0.56° C | 63% | 1013.2 hPa | 0 mm | - | - | - |
| 1777468299 | -0.56° C | 63% | 1013.8 hPa | 0 mm | - | - | - |
| 1777467699 | -1.11° C | - | 1013.7 hPa | 0 mm | - | - | - |
| 1777467099 | -1.11° C | 64% | 1012.9 hPa | 0 mm | - | - | - |
| 1777466499 | -0.56° C | 62% | 1012.9 hPa | 0 mm | - | - | - |
| 1777465899 | -0.56° C | 63% | 1012.9 hPa | 0 mm | - | - | - |
| 1777465299 | -1.11° C | 65% | 1013 hPa | 0 mm | - | - | - |
| 1777464699 | -1.11° C | 66% | 1013 hPa | 0 mm | - | - | - |
| 1777464099 | -1.11° C | 65% | 1013 hPa | 0 mm | - | - | - |
| 1777463499 | -1.11° C | 66% | 1012.9 hPa | 0 mm | - | - | - |
| 1777462899 | -1.11° C | 65% | 1012.9 hPa | 0 mm | - | - | - |
| 1777462299 | -1.11° C | 66% | 1012.9 hPa | 0 mm | - | - | - |
| 1777461699 | -1.11° C | 65% | 1013.1 hPa | 0 mm | - | - | - |
* Rain latest hour (hover to see other rain measurements)
** Current wind speed in m/s (hover to see current wind gust speed)